Location: Lac Lasalle
(46.0398°N, 74.1576°W)
Time: 21:02:55
(UTC-04:00)

ISS - Pass Details

Date: 23 March 2019
Orbit: 408 x 410 km, 51.6° (Epoch: 21 April)

Event Time Altitude Azimuth Distance (km) Brightness Sun altitude
Rises 19:52:35 0° 219° (SW) 2,323 0.4 -7.7°
Reaches altitude 10° 19:54:45 10° 210° (SSW) 1,466 -0.7 -8.0°
Maximum altitude 19:57:47 35° 142° (SE) 681 -3.1 -8.5°
Enters shadow 20:00:43 11° 76° (ENE) 1,430 -1.6 -9.0°
